Regional Weather Roundup
Issued by NWS

Home | Current Version | Previous Version | Text Only | Print | Product List | Glossary Off
Versions: 1 2 3 4 5 6 7 8 9 10 11 12 13 14 15 16 17 18 19 20 21 22 23 24 25 26 27 28 29 30 31 32 33 34 35 36 37 38 39 40 41 42 43 44 45 46 47 48 49 50

000
ASUS45 KABQ 300310
RWRNM
WEATHER ROUNDUP FOR NEW MEXICO
NATIONAL WEATHER SERVICE ALBUQUERQUE NM
900 PM MDT FRI AUG 29 2014

NOTE: "FAIR" MEANS FEW OR NO CLOUDS BELOW 12,000 FEET AGL WITH NO
       SIGNIFICANT WEATHER OR OBSTRUCTIONS TO VISION.

      THIS PRODUCT IS RELEASED AS TWO VERSIONS.  ONE VERSION NEAR
      THE TOP OF THE HOUR CONTAINING PRELIMINARY DATA FROM ALBUQUERQUE
      AND OTHER STATIONS.  A FINAL VERSION WITH ADDITIONAL DATA IS
      ISSUED ABOUT 10 MINUTES AFTER THE HOUR.

NMZ501-503-504-510>518-300400-
NORTHWEST PLATEAU/NORTHCENTRAL MOUNTAINS

CITY           SKY/WX    TMP DP  RH WIND       PRES   REMARKS
FARMINGTON     CLEAR     73  39  29 SW8       30.10R
LOS ALAMOS     CLEAR     67  33  27 SW8       30.25R
SANTA FE       CLEAR     67  38  34 VRB6      30.18R
ANGEL FIRE     FAIR      51  36  56 CALM      30.35R

$$
NMZ402-403-502-505>509-300400-
WESTCENTRAL MOUNTAINS/SOUTHWEST MOUNTAINS

CITY           SKY/WX    TMP DP  RH WIND       PRES   REMARKS
GALLUP         CLEAR     70  32  24 NE7       30.19R
SILVER CITY    PTCLDY    77  39  25 SW5       30.11R

$$
NMZ407-409-411-412-300400-
SOUTHERN DESERTS

CITY           SKY/WX    TMP DP  RH WIND       PRES   REMARKS
LORDSBURG      FAIR      81  43  26 W8        30.00R
DEMING         CLEAR     81  44  27 SW6       29.99R
LAS CRUCES     CLEAR     81  41  24 SE5       30.03R
HOLLOMAN AFB   CLEAR     82  44  26 NW1       29.99R
ALAMOGORDO     CLEAR     73  45  35 E7        30.01R
T OR C         CLEAR     79  43  27 NE3       30.04R

$$
NMZ519>523-300400-
CENTRAL VALLEYS/CENTRAL HIGHLANDS

CITY           SKY/WX    TMP DP  RH WIND       PRES   REMARKS
ALBUQUERQUE    PTCLDY    74  42  31 SE6       30.11R
DOUBLE EAGLE   CLEAR     68  41  37 CALM      30.15R
MORIARTY ARPT  FAIR      65  47  53 CALM      30.19R
CLINES CORNERS CLEAR     63  42  46 SW7       30.23R
BELEN          FAIR      71  43  36 CALM      30.09R
SOCORRO        FAIR      74  48  39 SW6       30.07R

$$
NMZ524>526-539-540-300400-
SOUTHCENTRAL MOUNTAINS

CITY           SKY/WX    TMP DP  RH WIND       PRES   REMARKS
RUIDOSO        CLEAR     64  46  52 S5        30.26R

$$
NMZ527>531-300400-
NORTHEAST HIGHLANDS/NORTHEAST PLAINS

CITY           SKY/WX    TMP DP  RH WIND       PRES   REMARKS
LAS VEGAS      PTCLDY    60  41  49 SE9       30.23R
RATON          MOCLDY    67  40  37 NE10      30.19R
CLAYTON        CLEAR     70  48  45 E6        30.11R

$$
NMZ532>537-300400-
EASTCENTRAL PLAINS

CITY           SKY/WX    TMP DP  RH WIND       PRES   REMARKS
TUCUMCARI      CLEAR     75  38  26 SW6       30.02R
CANNON AFB     CLEAR     72  39  30 N8        30.06R
CLOVIS AIRPORT   N/A     70  41  35 E3        30.08R

$$
NMZ028-029-538-300400-
SOUTHEAST PLAINS

CITY           SKY/WX    TMP DP  RH WIND       PRES   REMARKS
ROSWELL        CLEAR     78  52  40 SW3       29.99R
CARLSBAD       CLEAR     82  48  30 NE9       29.96R
HOBBS          PTCLDY    81  57  44 E9        30.03R


$$


USA.gov is the U.S. government's official web portal to all federal, state and local government web resources and services.